This demonstration page uses our WeatherBlox Daily Observations layout. Learn more.

Left ArrowRight Arrow

39.01783, -85.05884

Hourly Observations for November 30, 2022

Temp ( °F °C ) Dew Point ( °F °C ) Humidity (%) Winds ( mph kmh ) Pressure ( in mb ) Visibility ( mi km ) Precip ( " mm )
12:00 am 00:00 Cloudy with Rain 54 12.2 54 12.2 100 100 S 10 17 29.72 1007 3 5 0.02 0.51
12:52 am 00:52 Cloudy with Light Rain 54 12.2 54 12.2 100 100 S 12 19 29.66 1004 7 11 0.05 1.27
1:52 am 01:52 Cloudy 55 12.8 55 12.8 100 100 S 13 20 29.63 1004 10 16 0.01 0.13
2:52 am 02:52 Cloudy with Light Rain 56 13.3 55 12.8 97 97 SSW 12 19 29.63 1004 10 16 0.01 0.13
3:52 am 03:52 Cloudy with Light Rain 56 13.3 56 13.3 100 100 SW 13 20 29.64 1004 5 8 0.08 2.03
4:52 am 04:52 Cloudy with Light Rain 52 11.1 50 10 93 93 NW 25 41 29.67 1005 10 16 0.02 0.51
5:07 am 05:07 Cloudy with Light Rain 47 8.3 44 6.7 90 90 WNW 32 52 29.72 1006 6 10 0.01 0.13
5:52 am 05:52 Cloudy with Light Rain 40 4.4 39 3.9 97 97 WNW 22 35 29.77 1008 6 10 0.01 0.13
6:48 am 06:48 Cloudy 37 3 34 1 87 87 WNW 21 33 29.88 1012 7 11 0.01 0.13
6:52 am 06:52 Cloudy 37 2.8 34 1.1 89 89 WNW 22 35 29.84 1010 7 11 0.01 0.13
7:16 am 07:16 Cloudy 36 2.2 31 -0.6 82 82 WNW 21 33 29.91 1013 10 16 0.00 0.00
7:52 am 07:52 Mostly Cloudy 35 1.7 29 -1.7 78 78 W 23 37 29.92 1013 10 16 0.00 0.00
8:16 am 08:16 Partly Cloudy 33 0.6 25 -3.9 72 72 WNW 25 41 29.99 1016 10 16 0.00 0.00
8:52 am 08:52 Partly Cloudy 33 0.6 24 -4.4 69 69 WNW 22 35 29.98 1015 10 16 0.01 0.13
9:52 am 09:52 Partly Cloudy 33 0.6 22 -5.6 63 63 W 17 28 30.01 1016 10 16 0.00 0.00
10:52 am 10:52 Mostly Sunny 34 1.1 20 -6.7 56 56 W 23 37 30.07 1018 10 16 0.00 0.00
11:52 am 11:52 Mostly Sunny 36 2.2 21 -6.1 54 54 W 20 31 30.09 1019 10 16 0.00 0.00
12:52 pm 12:52 Mostly Sunny 36 2.2 20 -6.7 52 52 W 21 33 30.10 1019 10 16 0.00 0.00
1:52 pm 13:52 Mostly Sunny 38 3.3 21 -6.1 50 50 W 16 26 30.10 1019 10 16 0.00 0.00
2:52 pm 14:52 Sunny 38 3.3 18 -7.8 44 44 W 16 26 30.12 1020 10 16 0.00 0.00
3:52 pm 15:52 Sunny 38 3.3 18 -7.8 44 44 WSW 15 24 30.15 1021 10 16 0.00 0.00
4:52 pm 16:52 Sunny 36 2.2 18 -7.8 47 47 W 13 20 30.18 1022 10 16 0.00 0.00
5:52 pm 17:52 Clear 34 1.1 18 -7.8 51 51 WSW 10 17 30.22 1023 10 16 0.00 0.00
6:52 pm 18:52 Clear 33 0.6 18 -7.8 53 53 W 10 17 30.25 1025 10 16 0.00 0.00
7:52 pm 19:52 Clear 31 -0.6 19 -7.2 61 61 W 9 15 30.28 1025 10 16 0.00 0.00
8:52 pm 20:52 Clear 29 -1.7 19 -7.2 66 66 W 12 19 30.31 1027 10 16 0.00 0.00
9:52 pm 21:52 Clear 29 -1.7 18 -7.8 63 63 W 18 30 30.34 1027 10 16 0.00 0.00
10:52 pm 22:52 Clear 28 -2.2 17 -8.3 63 63 W 16 26 30.34 1028 10 16 0.00 0.00
11:52 pm 23:52 Clear 28 -2.2 17 -8.3 63 63 W 15 24 30.36 1028 10 16 0.00 0.00

Powered by AerisWeather